Time,TemperatureF,DewpointF,PressureIn,WindDirection,WindDirectionDegrees,WindSpeedMPH,WindSpeedGustMPH,Humidity,HourlyPrecipIn,Conditions,Clouds,dailyrainin,SoftwareType,DateUTC
2013-02-17 00:03:00,18.0,13.0,30.21,West,269,0.0,0.0,82,0.00,,,0.00,weatherlink.com 1.10,2013-02-17 06:03:00,
2013-02-17 00:18:00,18.1,14.0,30.20,West,270,0.0,0.0,82,0.00,,,0.00,weatherlink.com 1.10,2013-02-17 06:18:00,
2013-02-17 00:33:00,18.2,14.0,30.20,West,269,0.0,0.0,84,0.00,,,0.00,weatherlink.com 1.10,2013-02-17 06:33:00,
2013-02-17 00:48:00,19.6,16.0,30.20,West,270,0.0,0.0,84,0.00,,,0.00,weatherlink.com 1.10,2013-02-17 06:48:00,
2013-02-17 01:03:00,20.0,16.0,30.20,West,270,0.0,0.0,84,0.00,,,0.00,weatherlink.com 1.10,2013-02-17 07:03:00,
2013-02-17 01:18:00,20.3,16.0,30.20,West,270,0.0,0.0,83,0.00,,,0.00,weatherlink.com 1.10,2013-02-17 07:18:00,
2013-02-17 01:33:00,19.6,16.0,30.19,West,270,0.0,0.0,84,0.00,,,0.00,weatherlink.com 1.10,2013-02-17 07:33:00,
2013-02-17 01:48:00,19.8,15.0,30.19,West,270,0.0,0.0,82,0.00,,,0.00,weatherlink.com 1.10,2013-02-17 07:48:00,
2013-02-17 02:03:00,19.9,16.0,30.20,West,270,0.0,1.0,84,0.00,,,0.00,weatherlink.com 1.10,2013-02-17 08:03:00,
2013-02-17 02:18:00,20.9,17.0,30.20,West,270,0.0,0.0,83,0.00,,,0.00,weatherlink.com 1.10,2013-02-17 08:18:00,
2013-02-17 02:33:00,22.0,18.0,30.20,West,270,0.0,0.0,83,0.00,,,0.00,weatherlink.com 1.10,2013-02-17 08:33:00,
2013-02-17 02:48:00,22.6,18.0,30.20,West,269,0.0,0.0,81,0.00,,,0.00,weatherlink.com 1.10,2013-02-17 08:48:00,
2013-02-17 03:03:00,23.1,18.0,30.20,West,269,0.0,0.0,81,0.00,,,0.00,weatherlink.com 1.10,2013-02-17 09:03:00,
2013-02-17 03:18:00,22.8,18.0,30.20,West,270,0.0,0.0,81,0.00,,,0.00,weatherlink.com 1.10,2013-02-17 09:18:00,
2013-02-17 03:33:00,22.9,18.0,30.20,West,270,0.0,0.0,82,0.00,,,0.00,weatherlink.com 1.10,2013-02-17 09:33:00,
2013-02-17 03:48:00,22.1,17.0,30.20,West,269,0.0,0.0,82,0.00,,,0.00,weatherlink.com 1.10,2013-02-17 09:48:00,
2013-02-17 04:03:00,21.8,18.0,30.19,West,270,0.0,0.0,85,0.00,,,0.00,weatherlink.com 1.10,2013-02-17 10:03:00,
2013-02-17 04:18:00,21.9,18.0,30.20,West,270,0.0,0.0,86,0.00,,,0.00,weatherlink.com 1.10,2013-02-17 10:18:00,
2013-02-17 04:33:00,22.1,19.0,30.19,West,270,0.0,0.0,86,0.00,,,0.00,weatherlink.com 1.10,2013-02-17 10:33:00,
2013-02-17 04:48:00,22.3,19.0,30.20,West,270,0.0,0.0,86,0.00,,,0.00,weatherlink.com 1.10,2013-02-17 10:48:00,
2013-02-17 05:03:00,22.2,18.0,30.20,West,269,0.0,1.0,84,0.00,,,0.00,weatherlink.com 1.10,2013-02-17 11:03:00,
2013-02-17 05:18:00,22.2,18.0,30.21,West,270,0.0,0.0,83,0.00,,,0.00,weatherlink.com 1.10,2013-02-17 11:18:00,
2013-02-17 05:33:00,22.1,18.0,30.21,West,269,0.0,0.0,84,0.00,,,0.00,weatherlink.com 1.10,2013-02-17 11:33:00,
2013-02-17 05:48:00,22.1,18.0,30.21,West,269,0.0,0.0,85,0.00,,,0.00,weatherlink.com 1.10,2013-02-17 11:48:00,
2013-02-17 06:03:00,23.0,19.0,30.21,West,270,0.0,1.0,85,0.00,,,0.00,weatherlink.com 1.10,2013-02-17 12:03:00,
2013-02-17 06:18:00,23.8,19.0,30.21,West,269,0.0,1.0,83,0.00,,,0.00,weatherlink.com 1.10,2013-02-17 12:18:00,
2013-02-17 06:33:00,24.1,19.0,30.21,West,270,0.0,0.0,82,0.00,,,0.00,weatherlink.com 1.10,2013-02-17 12:33:00,
2013-02-17 06:48:00,24.9,20.0,30.20,SE,139,0.0,1.0,81,0.00,,,0.00,weatherlink.com 1.10,2013-02-17 12:48:00,
2013-02-17 07:04:00,25.6,20.0,30.20,SE,143,0.0,2.0,78,0.00,,,0.00,weatherlink.com 1.10,2013-02-17 13:04:00,
2013-02-17 07:19:00,26.6,19.0,30.20,SSE,158,2.0,2.0,73,0.00,,,0.00,weatherlink.com 1.10,2013-02-17 13:19:00,
2013-02-17 07:34:00,27.3,19.0,30.20,SE,139,1.0,3.0,71,0.00,,,0.00,weatherlink.com 1.10,2013-02-17 13:34:00,
2013-02-17 07:49:00,28.0,19.0,30.19,ENE,64,1.0,3.0,69,0.00,,,0.00,weatherlink.com 1.10,2013-02-17 13:49:00,
2013-02-17 08:04:00,28.9,19.0,30.20,SE,138,3.0,4.0,66,0.00,,,0.00,weatherlink.com 1.10,2013-02-17 14:04:00,
2013-02-17 08:19:00,29.9,19.0,30.20,SSE,165,1.0,3.0,64,0.00,,,0.00,weatherlink.com 1.10,2013-02-17 14:19:00,
2013-02-17 08:34:00,30.7,19.0,30.20,SE,145,1.0,4.0,63,0.00,,,0.00,weatherlink.com 1.10,2013-02-17 14:34:00,
2013-02-17 08:49:00,31.8,20.0,30.20,ENE,61,1.0,5.0,61,0.00,,,0.00,weatherlink.com 1.10,2013-02-17 14:49:00,
2013-02-17 09:04:00,32.6,19.0,30.20,ENE,77,1.0,5.0,58,0.00,,,0.00,weatherlink.com 1.10,2013-02-17 15:04:00,
2013-02-17 09:19:00,33.7,19.0,30.19,ESE,109,4.0,8.0,56,0.00,,,0.00,weatherlink.com 1.10,2013-02-17 15:19:00,
2013-02-17 09:34:00,35.2,20.0,30.19,SSE,150,4.0,7.0,54,0.00,,,0.00,weatherlink.com 1.10,2013-02-17 15:34:00,
2013-02-17 09:49:00,36.1,19.0,30.19,SSE,162,5.0,8.0,50,0.00,,,0.00,weatherlink.com 1.10,2013-02-17 15:49:00,
2013-02-17 10:04:00,37.1,20.0,30.19,SSE,160,4.0,7.0,50,0.00,,,0.00,weatherlink.com 1.10,2013-02-17 16:04:00,
2013-02-17 10:19:00,38.0,20.0,30.19,SW,222,1.0,8.0,49,0.00,,,0.00,weatherlink.com 1.10,2013-02-17 16:19:00,
2013-02-17 10:34:00,39.2,20.0,30.18,SE,125,2.0,9.0,46,0.00,,,0.00,weatherlink.com 1.10,2013-02-17 16:34:00,
2013-02-17 10:49:00,39.6,20.0,30.18,SSW,213,5.0,10.0,45,0.00,,,0.00,weatherlink.com 1.10,2013-02-17 16:49:00,
2013-02-17 11:04:00,40.8,20.0,30.18,SE,131,2.0,10.0,44,0.00,,,0.00,weatherlink.com 1.10,2013-02-17 17:04:00,
2013-02-17 11:19:00,41.6,20.0,30.17,NE,56,1.0,12.0,42,0.00,,,0.00,weatherlink.com 1.10,2013-02-17 17:19:00,
2013-02-17 11:35:00,43.3,21.0,30.16,South,175,4.0,9.0,41,0.00,,,0.00,weatherlink.com 1.10,2013-02-17 17:35:00,
2013-02-17 11:50:00,43.1,21.0,30.15,NE,47,3.0,11.0,42,0.00,,,0.00,weatherlink.com 1.10,2013-02-17 17:50:00,
2013-02-17 12:05:00,43.9,21.0,30.14,SSW,194,1.0,7.0,41,0.00,,,0.00,weatherlink.com 1.10,2013-02-17 18:05:00,
2013-02-17 12:20:00,44.6,22.0,30.13,North,6,2.0,8.0,41,0.00,,,0.00,weatherlink.com 1.10,2013-02-17 18:20:00,
2013-02-17 12:35:00,45.0,21.0,30.12,South,183,10.0,12.0,39,0.00,,,0.00,weatherlink.com 1.10,2013-02-17 18:35:00,
2013-02-17 12:50:00,45.9,22.0,30.11,SE,146,6.0,11.0,39,0.00,,,0.00,weatherlink.com 1.10,2013-02-17 18:50:00,
2013-02-17 13:05:00,46.0,22.0,30.10,SE,134,5.0,8.0,39,0.00,,,0.00,weatherlink.com 1.10,2013-02-17 19:05:00,
2013-02-17 13:20:00,46.2,22.0,30.09,SSE,155,9.0,13.0,39,0.00,,,0.00,weatherlink.com 1.10,2013-02-17 19:20:00,
2013-02-17 13:35:00,47.1,23.0,30.08,NNE,29,4.0,9.0,39,0.00,,,0.00,weatherlink.com 1.10,2013-02-17 19:35:00,
2013-02-17 13:50:00,47.1,23.0,30.08,South,174,3.0,9.0,39,0.00,,,0.00,weatherlink.com 1.10,2013-02-17 19:50:00,
2013-02-17 14:05:00,47.2,23.0,30.07,ENE,65,5.0,12.0,39,0.00,,,0.00,weatherlink.com 1.10,2013-02-17 20:05:00,
2013-02-17 14:20:00,47.6,24.0,30.06,ENE,69,4.0,11.0,39,0.00,,,0.00,weatherlink.com 1.10,2013-02-17 20:20:00,
2013-02-17 14:35:00,47.9,23.0,30.06,ENE,74,7.0,12.0,38,0.00,,,0.00,weatherlink.com 1.10,2013-02-17 20:35:00,
2013-02-17 14:50:00,48.1,24.0,30.05,South,176,2.0,11.0,39,0.00,,,0.00,weatherlink.com 1.10,2013-02-17 20:50:00,
2013-02-17 15:05:00,48.5,24.0,30.05,WNW,302,6.0,12.0,39,0.00,,,0.00,weatherlink.com 1.10,2013-02-17 21:05:00,
2013-02-17 15:20:00,48.9,24.0,30.04,NNW,340,2.0,11.0,38,0.00,,,0.00,weatherlink.com 1.10,2013-02-17 21:20:00,
2013-02-17 15:35:00,49.5,25.0,30.03,SSE,148,5.0,12.0,38,0.00,,,0.00,weatherlink.com 1.10,2013-02-17 21:35:00,
2013-02-17 15:50:00,49.3,26.0,30.03,SE,131,3.0,8.0,40,0.00,,,0.00,weatherlink.com 1.10,2013-02-17 21:50:00,
2013-02-17 16:05:00,49.3,26.0,30.02,East,84,6.0,10.0,40,0.00,,,0.00,weatherlink.com 1.10,2013-02-17 22:05:00,
2013-02-17 16:20:00,48.8,26.0,30.01,SSE,148,5.0,10.0,41,0.00,,,0.00,weatherlink.com 1.10,2013-02-17 22:20:00,
2013-02-17 16:35:00,48.2,26.0,30.00,SE,125,3.0,7.0,42,0.00,,,0.00,weatherlink.com 1.10,2013-02-17 22:35:00,
2013-02-17 16:50:00,47.6,26.0,29.99,ESE,108,2.0,8.0,43,0.00,,,0.00,weatherlink.com 1.10,2013-02-17 22:50:00,
2013-02-17 17:05:00,47.0,26.0,29.99,ESE,123,4.0,10.0,45,0.00,,,0.00,weatherlink.com 1.10,2013-02-17 23:05:00,
2013-02-17 17:20:00,46.5,27.0,29.99,SE,134,4.0,9.0,47,0.00,,,0.00,weatherlink.com 1.10,2013-02-17 23:20:00,
2013-02-17 17:36:00,46.1,28.0,29.99,SE,146,2.0,10.0,49,0.00,,,0.00,weatherlink.com 1.10,2013-02-17 23:36:00,
2013-02-17 17:51:00,45.4,28.0,29.99,ESE,110,4.0,11.0,51,0.00,,,0.00,weatherlink.com 1.10,2013-02-17 23:51:00,
2013-02-17 18:06:00,44.9,29.0,29.99,SSE,147,5.0,11.0,53,0.00,,,0.00,weatherlink.com 1.10,2013-02-18 00:06:00,
2013-02-17 18:21:00,44.4,29.0,29.99,South,176,1.0,7.0,55,0.00,,,0.00,weatherlink.com 1.10,2013-02-18 00:21:00,
2013-02-17 18:36:00,44.3,30.0,29.99,SE,141,5.0,10.0,58,0.00,,,0.00,weatherlink.com 1.10,2013-02-18 00:36:00,
2013-02-17 18:51:00,43.9,31.0,29.99,SE,134,6.0,10.0,60,0.00,,,0.00,weatherlink.com 1.10,2013-02-18 00:51:00,
2013-02-17 19:06:00,43.7,31.0,29.99,South,172,4.0,12.0,62,0.00,,,0.00,weatherlink.com 1.10,2013-02-18 01:06:00,
2013-02-17 19:21:00,43.4,31.0,29.99,South,188,3.0,11.0,63,0.00,,,0.00,weatherlink.com 1.10,2013-02-18 01:21:00,
2013-02-17 19:36:00,43.0,31.0,29.99,South,170,7.0,9.0,64,0.00,,,0.00,weatherlink.com 1.10,2013-02-18 01:36:00,
2013-02-17 19:51:00,42.9,32.0,29.98,SE,143,2.0,9.0,65,0.00,,,0.00,weatherlink.com 1.10,2013-02-18 01:51:00,
2013-02-17 20:06:00,42.8,32.0,29.98,SSE,152,5.0,10.0,66,0.00,,,0.00,weatherlink.com 1.10,2013-02-18 02:06:00,
2013-02-17 20:21:00,42.8,32.0,29.98,SSE,155,2.0,10.0,66,0.00,,,0.00,weatherlink.com 1.10,2013-02-18 02:21:00,
2013-02-17 20:36:00,42.7,32.0,29.97,SE,125,3.0,11.0,66,0.00,,,0.00,weatherlink.com 1.10,2013-02-18 02:36:00,
2013-02-17 20:51:00,42.5,32.0,29.97,SSW,199,5.0,11.0,67,0.00,,,0.00,weatherlink.com 1.10,2013-02-18 02:51:00,
2013-02-17 21:06:00,42.2,32.0,29.97,West,276,3.0,9.0,67,0.00,,,0.00,weatherlink.com 1.10,2013-02-18 03:06:00,
2013-02-17 21:21:00,42.1,32.0,29.97,SE,146,4.0,9.0,68,0.00,,,0.00,weatherlink.com 1.10,2013-02-18 03:21:00,
2013-02-17 21:36:00,42.0,32.0,29.96,SE,139,3.0,11.0,69,0.00,,,0.00,weatherlink.com 1.10,2013-02-18 03:36:00,
2013-02-17 21:51:00,42.0,32.0,29.95,SSW,207,4.0,14.0,69,0.00,,,0.00,weatherlink.com 1.10,2013-02-18 03:51:00,
2013-02-17 22:06:00,42.0,33.0,29.95,South,187,6.0,12.0,70,0.00,,,0.00,weatherlink.com 1.10,2013-02-18 04:06:00,
2013-02-17 22:21:00,42.1,33.0,29.94,SSE,150,4.0,11.0,70,0.00,,,0.00,weatherlink.com 1.10,2013-02-18 04:21:00,
2013-02-17 22:36:00,42.2,33.0,29.93,SSW,205,3.0,10.0,70,0.00,,,0.00,weatherlink.com 1.10,2013-02-18 04:36:00,
2013-02-17 22:51:00,42.2,33.0,29.93,SSW,201,3.0,10.0,70,0.00,,,0.00,weatherlink.com 1.10,2013-02-18 04:51:00,
2013-02-17 23:06:00,42.0,33.0,29.93,SE,146,6.0,8.0,71,0.00,,,0.00,weatherlink.com 1.10,2013-02-18 05:06:00,
2013-02-17 23:21:00,41.8,33.0,29.92,SSE,163,2.0,7.0,71,0.00,,,0.00,weatherlink.com 1.10,2013-02-18 05:21:00,
2013-02-17 23:36:00,41.9,33.0,29.92,SW,226,1.0,8.0,71,0.00,,,0.00,weatherlink.com 1.10,2013-02-18 05:36:00,
2013-02-17 23:51:00,41.7,33.0,29.91,SE,133,2.0,9.0,72,0.00,,,0.00,weatherlink.com 1.10,2013-02-18 05:51:00,